TimeCDT,TemperatureF,Dew PointF,Humidity,Sea Level PressureIn,VisibilityMPH,Wind Direction,Wind SpeedMPH,Gust SpeedMPH,PrecipitationIn,Events,Conditions,WindDirDegrees,DateUTC
12:53 AM,52.0,46.0,80,29.37,10.0,Calm,Calm,-,N/A,,Clear,0,2012-10-17 05:53:00
1:53 AM,46.9,44.1,90,29.35,7.0,Calm,Calm,-,N/A,,Clear,0,2012-10-17 06:53:00
2:53 AM,50.0,45.0,83,29.33,8.0,East,4.6,-,N/A,,Clear,100,2012-10-17 07:53:00
3:53 AM,50.0,46.0,86,29.31,8.0,ESE,3.5,-,N/A,,Clear,110,2012-10-17 08:53:00
4:53 AM,51.1,46.0,83,29.25,8.0,East,8.1,-,N/A,,Overcast,100,2012-10-17 09:53:00
5:53 AM,51.1,46.9,86,29.23,8.0,East,5.8,-,N/A,,Overcast,80,2012-10-17 10:53:00
6:53 AM,52.0,46.9,83,29.19,8.0,East,9.2,-,N/A,,Overcast,90,2012-10-17 11:53:00
7:53 AM,52.0,46.9,83,29.15,9.0,East,6.9,-,N/A,,Overcast,90,2012-10-17 12:53:00
8:53 AM,54.0,46.9,77,29.14,10.0,ESE,9.2,-,0.00,,Overcast,120,2012-10-17 13:53:00
9:53 AM,57.0,46.9,69,29.11,10.0,SE,12.7,-,N/A,,Clear,130,2012-10-17 14:53:00
10:53 AM,62.1,46.0,56,29.11,10.0,South,11.5,-,N/A,,Mostly Cloudy,180,2012-10-17 15:53:00
11:53 AM,64.9,45.0,48,29.11,10.0,SW,20.7,26.5,N/A,,Clear,230,2012-10-17 16:53:00
12:24 PM,57.2,48.2,72,29.13,10.0,WSW,20.7,32.2,N/A,,Mostly Cloudy,240,2012-10-17 17:24:00
12:53 PM,54.0,48.0,80,29.17,6.0,West,23.0,32.2,N/A,,Haze,260,2012-10-17 17:53:00
1:17 PM,53.6,46.4,77,29.16,10.0,West,21.9,34.5,0.00,,Overcast,260,2012-10-17 18:17:00
1:46 PM,53.6,44.6,72,29.17,10.0,West,21.9,32.2,0.00,,Overcast,260,2012-10-17 18:46:00
1:53 PM,55.0,44.1,67,29.20,10.0,West,17.3,26.5,0.00,,Overcast,260,2012-10-17 18:53:00
2:53 PM,54.0,44.1,69,29.22,10.0,WSW,15.0,-,N/A,,Overcast,250,2012-10-17 19:53:00
3:45 PM,55.4,42.8,63,29.21,10.0,WSW,16.1,25.3,N/A,,Overcast,240,2012-10-17 20:45:00
3:53 PM,55.0,42.1,62,29.24,10.0,WSW,15.0,23.0,N/A,,Overcast,240,2012-10-17 20:53:00
4:53 PM,55.9,42.1,60,29.25,10.0,SW,10.4,-,N/A,,Mostly Cloudy,230,2012-10-17 21:53:00
5:53 PM,55.0,42.1,62,29.25,10.0,SW,11.5,-,N/A,,Overcast,220,2012-10-17 22:53:00
6:23 PM,53.6,42.8,67,29.23,10.0,West,16.1,23.0,N/A,,Overcast,260,2012-10-17 23:23:00
6:53 PM,51.1,44.1,77,29.28,10.0,West,15.0,-,N/A,,Overcast,260,2012-10-17 23:53:00
7:10 PM,50.0,44.6,82,29.26,10.0,West,16.1,-,N/A,,Overcast,260,2012-10-18 00:10:00
7:43 PM,48.2,42.8,82,29.28,10.0,West,16.1,-,N/A,,Overcast,260,2012-10-18 00:43:00
7:53 PM,48.0,42.1,80,29.31,10.0,West,12.7,-,0.00,Rain,Light Rain,270,2012-10-18 00:53:00
8:23 PM,46.4,39.2,76,29.28,10.0,West,16.1,-,0.00,,Mostly Cloudy,270,2012-10-18 01:23:00
8:53 PM,46.9,41.0,80,29.30,10.0,West,10.4,-,0.00,,Overcast,270,2012-10-18 01:53:00
9:53 PM,46.0,39.9,79,29.30,10.0,West,13.8,-,N/A,,Overcast,260,2012-10-18 02:53:00
10:53 PM,46.0,39.9,79,29.27,10.0,West,10.4,-,N/A,,Overcast,270,2012-10-18 03:53:00
11:46 PM,46.4,39.2,76,29.24,10.0,West,9.2,-,N/A,,Overcast,270,2012-10-18 04:46:00
11:53 PM,46.0,39.9,79,29.26,10.0,West,8.1,-,N/A,,Overcast,270,2012-10-18 04:53:00